Volver al catálogo

HORUS 2

ActivoMilitarSSO
NORAD 55844·PAYLOAD·🇪🇬 Egypt

Lanzado Mar 13, 2023 desde Jiuquan Satellite Launch Center

Loading…

Próximos Pases (próximas 24 horas)

TLE

ActualizadoSource: Space-Track

Época: Sep 14, 2026, 15:35 UTC

1 55844U 23032A   26257.64981009  .00004094  00000-0  17428-3 0  9997
2 55844  97.3463 331.2196 0002721 101.3026 258.8517 15.23540704195103

Sigue HORUS 2 en tiempo real con AllMySat

Download on the App Store